This is the latest recevied weather packets stored in our database for station/object WB5LJZ-5. If no packets are shown the sender has not sent any weather packets the latest 10 day(s).
| Time | Temp. | Humidity | Pressure | Rain* | Wind** | Luminosity | Snow |
|---|---|---|---|---|---|---|---|
| 1777589049 | 23.89° C | - | - | 0 mm | 4.92 m/s, 34° | - | - |
| 1777588414 | 23.89° C | - | - | 0 mm | 5.36 m/s, 41° | - | - |
| 1777587777 | 23.89° C | - | - | 0 mm | 3.58 m/s, 42° | - | - |
| 1777587141 | 23.89° C | - | - | 0 mm | 4.02 m/s, 30° | - | - |
| 1777586507 | 23.89° C | - | - | 0 mm | 5.36 m/s, 34° | - | - |
| 1777585870 | 23.89° C | - | - | 0 mm | 4.92 m/s, 55° | - | - |
| 1777584598 | 24.44° C | - | - | 0 mm | 5.36 m/s, 15° | - | - |
| 1777583963 | 24.44° C | - | - | 0 mm | 5.36 m/s, 342° | - | - |
| 1777583327 | 25° C | - | - | 0 mm | 5.36 m/s, 35° | - | - |
| 1777582691 | 25° C | - | - | 0 mm | 5.36 m/s, 42° | - | - |
| 1777582055 | 25.56° C | - | - | 0 mm | 5.36 m/s, 42° | - | - |
| 1777581420 | 25.56° C | - | - | 0 mm | 5.36 m/s, 39° | - | - |
| 1777580148 | 25.56° C | - | - | 0 mm | 5.36 m/s, 34° | - | - |
| 1777579512 | 25° C | - | - | 0 mm | 5.81 m/s, 37° | - | - |
| 1777578877 | 25° C | - | - | 0 mm | 5.36 m/s, 37° | - | - |
| 1777578241 | 25° C | - | - | 0 mm | 4.47 m/s, 44° | - | - |
| 1777577605 | 24.44° C | - | - | 0 mm | 4.02 m/s, 87° | - | - |
| 1777576970 | 24.44° C | - | - | 0 mm | 5.36 m/s, 34° | - | - |
| 1777576334 | 24.44° C | - | - | 0 mm | 4.92 m/s, 58° | - | - |
| 1777575698 | 24.44° C | - | - | 0 mm | 0 m/s | - | - |
| 1777575063 | 23.89° C | - | - | 0 mm | 4.92 m/s, 53° | - | - |
| 1777574427 | 23.89° C | - | - | 0 mm | 4.92 m/s, 49° | - | - |
| 1777573791 | 23.33° C | - | - | 0 mm | 4.92 m/s, 38° | - | - |
| 1777573155 | 23.33° C | - | - | 0 mm | 4.47 m/s, 37° | - | - |
| 1777572520 | 23.33° C | - | - | 0 mm | 3.58 m/s, 32° | - | - |
* Rain latest hour (hover to see other rain measurements)
** Current wind speed in m/s (hover to see current wind gust speed)